Tracking 29040 objects as of 16-Jun-2024
HD Live streaming from Space Station
objects crossing your sky now

CZ-4C DEB

Track CZ-4C DEB now!
10-day predictions


NORAD ID: 44598
Int'l Code: 2013-065H
Perigee: 998.3 km
Apogee: 1,207.8 km
Inclination: 100.4 °
Period: 107.2 minutes
Semi major axis: 7474 km
RCS: Unknown
Launch date: November 20, 2013
Source: People's Republic of China (PRC)
Launch site: Taiyaun Space Center, China (TSC)

Note: This is SATELLITE DEBRIS
Your satellite tracking list
Your tracking list is empty




NASA's NSSDC Master Catalog

Two Line Element Set (TLE):
1 44598U 13065H   24157.46903140 -.00000008  00000-0  65186-4 0  9990
2 44598 100.3788  67.6819 0140160 182.6908 177.3480 13.43590765434219
Source of the keplerian elements: AFSPC